Terminal Aerodrome Forecast
Issued by NWS

Home | Current Version | Previous Version | Text Only | Print | Product List | Glossary On
Versions: 1 2 3 4 5 6 7 8 9 10 11 12 13 14 15 16 17 18 19 20
000
FTUS42 TJSJ 250520
TAFISX
TAF
TISX 250520Z 2506/2606 10090KT P6SM VCSH FEW022 SCT040
      TEMPO 2506/2508 -RA SCT022 BKN040
     FM251400 16009KT P6SM VCSH SCT024 SCT040 BKN100
     FM252300 VRB03KT P6SM VCSH SCT020 SCT040 BKN080=

USA.gov is the U.S. government's official web portal to all federal, state and local government web resources and services.